Location: *
(43.9900°N, 3.4811°E)
Time: 12:54:35
(UTC+00:00)

Abrixas rocket - Pass Details

Date: 25 August 2019
Orbit: 364 x 371 km, 48.4° (Epoch: 15 September)

Event Time Altitude Azimuth Distance (km) Brightness Sun altitude
Rises 19:27:09 0° 279° (W) 2,217 7.6 -9.6°
Reaches altitude 10° 19:29:18 10° 289° (WNW) 1,370 6.5 -10.0°
Maximum altitude 19:32:09 34° 357° (N) 638 3.5 -10.5°
Drops below altitude 10° 19:35:00 10° 65° (ENE) 1,375 4.5 -10.9°
Enters shadow 19:35:17 - 67° (ENE) 1,484 4.7 -11.0°
